Cross City, FL

8:17 AM EST on December 06, 2019 (GMT -0500)
Cross City

Weather History for KCTY - October, 2019

Change the Weather History Date:

Friday, October 25, 2019

  Actual Average Record
Temperature  
Mean Temperature 80 °F 68 °F  
Max Temperature 90 °F 81 °F 90 °F (2001)
Min Temperature 70 °F 55 °F 35 °F (1999)
Degree Days  
Heating Degree Days 0    
Month to date heating degree days 4  
Since 1 July heating degree days 4  
Cooling Degree Days 15    
Month to date cooling degree days 257  
Year to date cooling degree days 3014  
Growing Degree Days 30 (Base 50)    
Moisture  
Dew Point 71 °F    
Average Humidity 81    
Maximum Humidity 99    
Minimum Humidity 50    
Precipitation  
Precipitation 0.00 in 0.08 in 0.18 in (2002)
Month to date precipitation 1.95 2.87  
Year to date precipitation 49.42 42.70  
Sea Level Pressure  
Sea Level Pressure 30.06 in    
Wind  
Wind Speed 7 mph (East)    
Max Wind Speed 14 mph    
Max Gust Speed 20 mph    
Visibility 10 miles    
Events Rain    
T = Trace of Precipitation, MM = Missing Value Source: NWS Daily Summary

Daily Weather History Graph

Daily Weather History Graph

Search for Another Location

Airport or City:

Astronomy

Oct. 25, 2019 Rise Set
Actual Time 7:40 AM EDT 6:51 PM EDT
Civil Twilight 7:16 AM EDT 7:16 PM EDT
Nautical Twilight 6:48 AM EDT 7:44 PM EDT
Astronomical Twilight 6:20 AM EDT 8:11 PM EDT
Moon 4:43 AM EDT (10/25) 5:35 PM EDT (10/25)
Length of Visible Light 12h 00m
Length of Day
11h 11m
Waning Crescent, 9% of the Moon is Illuminated
Oct 25
Waning Crescent
Oct 27
New
Nov 4
First Quarter
Nov 12
Full
Nov 19
Last Quarter

Hourly Weather History & Observations

Time (EDT) Temp. Heat Index Dew Point Humidity Pressure Visibility Wind Dir Wind Speed Gust Speed Precip Events Conditions
12:15 AM 73.2 °F - 70.0 °F 90% 30.14 in 10.0 mi ENE 4.6 mph - N/A   Unknown
12:35 AM 72.7 °F - 69.8 °F 91% 30.13 in 10.0 mi ENE 4.6 mph - N/A   Unknown
12:55 AM 72.3 °F - 69.8 °F 92% 30.13 in 10.0 mi ENE 6.9 mph - N/A   Unknown
1:15 AM 72.3 °F - 69.6 °F 91% 30.12 in 10.0 mi ENE 4.6 mph - N/A   Unknown
1:35 AM 71.8 °F - 69.4 °F 92% 30.12 in 10.0 mi ENE 4.6 mph - N/A   Unknown
1:55 AM 71.4 °F - 69.3 °F 93% 30.11 in 10.0 mi ENE 5.8 mph - N/A   Unknown
2:15 AM 71.2 °F - 69.3 °F 93% 30.10 in 10.0 mi ENE 4.6 mph - N/A   Unknown
2:35 AM 71.2 °F - 69.4 °F 94% 30.10 in 10.0 mi ENE 4.6 mph - N/A   Unknown
2:55 AM 71.1 °F - 69.3 °F 94% 30.10 in 10.0 mi ENE 4.6 mph - N/A   Unknown
3:35 AM 70.9 °F - 69.4 °F 95% 30.09 in 10.0 mi ENE 3.5 mph - N/A   Unknown
3:55 AM 70.5 °F - 69.3 °F 96% 30.09 in 10.0 mi ENE 4.6 mph - N/A   Unknown
4:15 AM 70.5 °F - 69.4 °F 96% 30.09 in 10.0 mi ENE 4.6 mph - N/A   Unknown
4:35 AM 70.7 °F - 69.6 °F 96% 30.09 in 10.0 mi NE 4.6 mph - N/A   Unknown
4:55 AM 70.7 °F - 69.6 °F 96% 30.08 in 10.0 mi ENE 4.6 mph - N/A   Unknown
5:15 AM 70.7 °F - 69.6 °F 96% 30.08 in 10.0 mi ENE 4.6 mph - N/A   Unknown
5:35 AM 70.5 °F - 69.6 °F 97% 30.09 in 10.0 mi NE 3.5 mph - N/A   Unknown
5:55 AM 70.3 °F - 69.6 °F 98% 30.09 in 10.0 mi ENE 3.5 mph - N/A   Unknown
6:15 AM 70.3 °F - 69.6 °F 98% 30.09 in 10.0 mi ENE 4.6 mph - N/A   Unknown
6:35 AM 70.3 °F - 69.6 °F 98% 30.08 in 7.0 mi ENE 4.6 mph - N/A   Unknown
6:55 AM 70.2 °F - 69.6 °F 98% 30.08 in 7.0 mi ENE 3.5 mph - N/A   Unknown
7:15 AM 70.3 °F - 69.8 °F 98% 30.09 in 7.0 mi ENE 4.6 mph - N/A   Unknown
7:35 AM 70.5 °F - 70.0 °F 98% 30.09 in 7.0 mi ENE 4.6 mph - N/A   Mist
7:55 AM 70.7 °F - 70.3 °F 99% 30.09 in 5.0 mi ENE 3.5 mph - N/A   Mist
8:15 AM 71.1 °F - 70.7 °F 99% 30.09 in 7.0 mi ENE 3.5 mph - N/A   Mist
8:35 AM 72.0 °F - 71.4 °F 98% 30.10 in 7.0 mi ENE 4.6 mph - N/A   Unknown
8:55 AM 72.9 °F - 71.8 °F 96% 30.11 in 10.0 mi ENE 5.8 mph - N/A   Unknown
9:15 AM 73.4 °F - 71.6 °F 94% 30.11 in 10.0 mi ENE 6.9 mph - N/A   Unknown
9:35 AM 77.2 °F - 73.0 °F 87% 30.11 in 10.0 mi East 10.4 mph - N/A   Unknown
9:55 AM 79.2 °F - 73.4 °F 82% 30.12 in 10.0 mi East 10.4 mph - N/A   Unknown
10:15 AM 80.4 °F 85.0 °F 73.4 °F 79% 30.12 in 10.0 mi ESE 8.1 mph - N/A   Unknown
10:35 AM 80.4 °F 84.7 °F 72.7 °F 77% 30.12 in 10.0 mi East 8.1 mph - N/A   Unknown
10:55 AM 83.1 °F 89.2 °F 73.4 °F 72% 30.11 in 10.0 mi ESE 9.2 mph - N/A   Unknown
11:15 AM 82.0 °F 87.2 °F 72.7 °F 73% 30.11 in 10.0 mi ESE 10.4 mph 17.3 mph N/A   Unknown
11:35 AM 83.1 °F 88.4 °F 72.1 °F 69% 30.11 in 10.0 mi ESE 10.4 mph - N/A   Unknown
11:55 AM 84.2 °F 89.9 °F 72.1 °F 67% 30.10 in 10.0 mi East 13.8 mph - N/A   Unknown
12:15 PM 85.5 °F 91.8 °F 72.5 °F 65% 30.09 in 10.0 mi ESE 9.2 mph 17.3 mph N/A   Unknown
12:35 PM 86.2 °F 92.2 °F 71.6 °F 62% 30.08 in 10.0 mi ESE 12.7 mph 17.3 mph N/A   Unknown
12:55 PM 85.8 °F 91.5 °F 71.4 °F 62% 30.07 in 10.0 mi East 10.4 mph - N/A   Unknown
1:15 PM 86.9 °F 92.9 °F 71.4 °F 60% 30.06 in 10.0 mi ESE 10.4 mph 19.6 mph N/A   Unknown
1:35 PM 87.8 °F 93.8 °F 71.4 °F 58% 30.05 in 10.0 mi ESE 6.9 mph 17.3 mph N/A   Unknown
2:15 PM 88.3 °F 94.1 °F 70.9 °F 56% 30.02 in 10.0 mi ESE 9.2 mph - N/A   Unknown
2:35 PM 88.2 °F 93.7 °F 70.5 °F 56% 30.02 in 10.0 mi ESE 12.7 mph 18.4 mph N/A   Unknown
2:55 PM 88.2 °F 93.7 °F 70.7 °F 56% 30.00 in 10.0 mi SE 10.4 mph - N/A   Unknown
3:15 PM 90.0 °F 96.4 °F 71.1 °F 54% 30.00 in 10.0 mi ESE 13.8 mph - N/A   Unknown
3:35 PM 87.3 °F 92.8 °F 70.7 °F 58% 30.00 in 10.0 mi East 6.9 mph - N/A   Unknown
3:55 PM 87.8 °F 93.0 °F 70.5 °F 56% 30.00 in 10.0 mi East 9.2 mph - N/A   Unknown
4:15 PM 87.3 °F 92.8 °F 70.7 °F 58% 29.99 in 10.0 mi ESE 10.4 mph - N/A   Unknown
4:35 PM 86.7 °F 91.0 °F 69.3 °F 56% 29.99 in 10.0 mi ESE 10.4 mph - N/A   Unknown
5:15 PM 86.0 °F 90.4 °F 69.8 °F 58% 29.99 in 10.0 mi East 8.1 mph - N/A   Unknown
5:35 PM 84.9 °F 88.5 °F 68.7 °F 58% 29.99 in 10.0 mi ESE 12.7 mph 19.6 mph N/A   Unknown
5:55 PM 81.9 °F 86.0 °F 70.7 °F 69% 30.00 in 10.0 mi ESE 6.9 mph - N/A Rain Light Rain
6:15 PM 78.4 °F - 72.7 °F 82% 30.00 in 10.0 mi SSE 5.8 mph - N/A Rain Light Rain
6:35 PM 78.4 °F - 72.3 °F 81% 30.00 in 10.0 mi SSE 3.5 mph - N/A   Unknown
6:55 PM 77.7 °F - 72.7 °F 84% 30.00 in 10.0 mi Calm Calm - N/A   Unknown
7:15 PM 78.6 °F - 71.2 °F 78% 30.01 in 10.0 mi East 3.5 mph - N/A   Unknown
7:35 PM 78.4 °F - 71.1 °F 78% 30.02 in 10.0 mi East 4.6 mph - N/A   Unknown
7:55 PM 78.3 °F - 71.2 °F 79% 30.02 in 10.0 mi East 4.6 mph - N/A   Unknown
8:15 PM 78.3 °F - 70.9 °F 78% 30.03 in 10.0 mi ENE 3.5 mph - N/A   Unknown
8:35 PM 77.7 °F - 71.1 °F 80% 30.03 in 10.0 mi East 3.5 mph - N/A   Unknown
8:55 PM 77.7 °F - 71.1 °F 80% 30.03 in 10.0 mi East 4.6 mph - N/A   Unknown
9:15 PM 77.0 °F - 70.5 °F 80% 30.03 in 10.0 mi East 4.6 mph - N/A   Unknown
9:35 PM 77.2 °F - 70.0 °F 78% 30.03 in 10.0 mi East 5.8 mph - N/A   Unknown
9:55 PM 76.6 °F - 70.0 °F 80% 30.04 in 10.0 mi East 4.6 mph - N/A   Unknown
10:15 PM 76.3 °F - 69.6 °F 80% 30.04 in 10.0 mi East 5.8 mph - N/A   Unknown
10:35 PM 75.6 °F - 69.6 °F 82% 30.04 in 10.0 mi East 5.8 mph - N/A   Unknown
10:55 PM 75.2 °F - 69.6 °F 83% 30.04 in 10.0 mi East 6.9 mph - N/A   Unknown
11:15 PM 74.5 °F - 70.0 °F 86% 30.04 in 10.0 mi East 4.6 mph - N/A   Unknown
11:35 PM 74.1 °F - 70.2 °F 87% 30.04 in 10.0 mi East 4.6 mph - N/A   Unknown
11:55 PM 73.9 °F - 70.3 °F 88% 30.03 in 10.0 mi East 4.6 mph - N/A   Unknown